Location: Asheville, NC
(35.6000°N, 82.5500°W)
Time: 02:31:21
(UTC-04:00)

Vanguard 2 - Pass Details

Date: 15 March 2018
Orbit: 553 x 2939 km, 32.9° (Epoch: 20 June)

Event Time Altitude Azimuth Distance (km) Brightness Sun altitude
Rises 16:53:37 0° 283° (WNW) 6,688 13.0 31.2°
Reaches altitude 10° 16:58:06 10° 280° (W) 5,751 12.9 30.4°
Maximum altitude 17:15:12 55° 209° (SSW) 3,108 11.6 27.3°
Drops below altitude 10° 17:28:36 10° 137° (SE) 4,595 11.3 24.8°
Sets 17:31:46 0° 132° (SE) 5,315 11.6 24.2°
